FYGA4: White River At Fayetteville, AR

Data processed at Sun Oct 25 2020 22:29


All information presented herein is the property of the government of the United States of America and may be revised or deleted at any time without prior notice.
Dissemination of this information without the expressed written consent of the Public Affairs Office, Tulsa District U.S. Army Corps of Engineers is strictly prohibited.
These data are gathered electronically and, as presented, have not undergone any form of quality control. These data are not guaranteed to be valid or correct.
Go to home page.
Go to station list.
Go to home page.

Downstream station:


Previous Day
Next Day
Current Day
    
SHEF ID:       FYGA4     White River near Fayetteville, A
STATION TYPE:  

               PRECIP     STAGE  RIV-FLOW  WTR-TEMP   DIS-OXY        PH   CONDUCT  BAT-LOAD
                   in        ft       cfs         F      mg/l        su   umho/cm      volt
              Ccp-Rev   Ccp-Rev   Ccp-Rev   Ccp-Rev   Ccp-Rev   Ccp-Rev   Ccp-Rev   Ccp-Rev
(US/Central)
10/25 00:00      0.00      1.94        17     56.93      7.99      7.34       255     12.57
10/25 01:00      0.00      1.93        16     56.75      7.85      7.36       256     12.57
10/25 02:00      0.00      1.93        16     56.57      7.55      7.34       256     12.57
10/25 03:00      0.00      1.93        16     56.43      7.79      7.33       257     12.57
10/25 04:00      0.00      1.93        16     56.32      7.49      7.31       257     12.49
10/25 05:00      0.00      1.92        15     56.19      7.61      7.32       256     12.49
10/25 06:00      0.00      1.92        15     56.08      7.32      7.32       256     12.41
10/25 07:00      0.00      1.92        15     55.94      7.45      7.29       255     12.41
10/25 08:00      0.00      1.92        15     55.85      7.49      7.30       255     12.41
10/25 09:00      0.00      1.92        15     55.78      6.78      7.27       254     12.41
10/25 10:00      0.00      1.92        15     55.80      7.52      7.29       253     12.49
10/25 11:00      0.00      1.91        15     55.96      7.60      7.29       252     12.81
10/25 12:00      0.00      1.91        15     56.25      7.35      7.28       251     13.53
10/25 13:00      0.00      1.91        15     56.88      8.34      7.29       249     13.44
10/25 14:00      0.00      1.91        15     57.27      8.13      7.30       248     13.84
10/25 15:00      0.00      1.91        15     57.69      8.46      7.33       247     13.92
10/25 16:00      0.00      1.91        15     57.76      8.73      7.37       245     13.68
10/25 17:00      0.00      1.92        15     57.70      8.55      7.40       243     13.68
10/25 18:00      0.00      1.91        15     57.56      8.70      7.38       241     13.21
10/25 19:00      0.00      1.91        15     57.42      8.16      7.36       240     12.73
10/25 20:00      0.00      1.90        14     57.25      8.30      7.34       239     12.65
10/25 21:00      0.00      1.90        14     57.09      8.17      7.33       239     12.65
10/25 22:00      ----      ----      ----      ----      ----      ----      ----      ----
10/25 23:00      ----      ----      ----      ----      ----      ----      ----      ----